Date String (YYYY-MM-DD hh:mm:ss) UTC,Instrument flags,Ambient pressure (hPa),Sample flow (lpm),Bypass flow (lpm),Sample temperature (°C),Ambient temperature (°C),ASC tube jacket temperature (°C),LED temperature (°C),Box temperature (°C),Sample RH (%),Span deviation,Mass concentration (μg/m³),Mass concentration (μg/m³),Mass concentration (μg/m³)
DateTimeUTC,F1_M11,P_M11,Q1_M11,Q2_M11,T1_M11,T2_M11,T3_M11,T4_M11,T5_M11,U1_M11,ZSPAN_M11,X2_M11,X0_M11,X1_M11
2022-05-21 11:00:00,,0829.4,5.00,0.00,22.7,21.6,00.0,31.7,24.6,19.1,0000.0,0004.09,0007.77,0003.65
2022-05-21 11:01:00,,0829.2,5.00,0.00,22.7,21.6,00.0,31.7,24.5,19.1,0000.0,0004.14,0007.90,0003.69
2022-05-21 11:02:00,,0829.3,5.00,0.00,22.7,21.6,00.0,31.7,24.5,19.1,0000.0,0004.21,0008.10,0003.72
2022-05-21 11:03:00,,0829.2,4.99,0.00,22.7,21.6,00.0,31.7,24.5,19.2,0000.0,0004.25,0008.14,0003.72
2022-05-21 11:04:00,,0829.3,5.00,0.00,22.7,21.6,00.0,31.7,24.5,19.2,0000.0,0004.26,0007.85,0003.73
2022-05-21 11:05:00,,0829.2,5.01,0.00,22.6,21.6,00.0,31.7,24.5,19.2,0000.0,0004.24,0007.79,0003.74
2022-05-21 11:06:00,,0829.2,4.99,0.00,22.6,21.6,00.0,31.6,24.5,19.2,0000.0,0004.21,0007.61,0003.75
2022-05-21 11:07:00,,0829.3,5.00,0.00,22.6,21.5,00.0,31.6,24.5,19.2,0000.0,0004.21,0006.76,0003.77
2022-05-21 11:08:00,,0829.2,5.00,0.00,22.6,21.5,00.0,31.6,24.5,19.2,0000.0,0004.28,0007.15,0003.79
2022-05-21 11:09:00,,0829.2,5.01,0.00,22.6,21.5,00.0,31.6,24.4,19.3,0000.0,0004.32,0007.19,0003.80
2022-05-21 11:10:00,,0829.3,5.00,0.00,22.6,21.5,00.0,31.6,24.4,19.3,0000.0,0004.32,0007.12,0003.81
2022-05-21 11:11:00,,0829.3,5.01,0.00,22.6,21.5,00.0,31.6,24.4,19.3,0000.0,0004.30,0007.13,0003.81
2022-05-21 11:12:00,,0829.4,5.00,0.00,22.6,21.5,00.0,31.6,24.4,19.3,0000.0,0004.28,0007.01,0003.80
2022-05-21 11:13:00,,0829.4,5.00,0.00,22.6,21.5,00.0,31.6,24.4,19.5,0000.0,0004.23,0006.84,0003.76
2022-05-21 11:14:00,,0829.5,5.00,0.00,22.6,21.5,00.0,31.6,24.4,21.0,0000.0,0004.17,0006.68,0003.73
2022-05-21 11:15:00,,0829.5,5.00,0.00,22.6,21.5,00.0,31.6,24.4,21.9,0000.0,0004.13,0006.62,0003.69
2022-05-21 11:16:00,,0829.5,5.01,0.00,22.5,21.5,00.0,31.6,24.4,20.2,0000.0,0004.09,0006.56,0003.64
2022-05-21 11:17:00,,0829.5,5.00,0.00,22.5,21.4,00.0,31.5,24.4,19.5,0000.0,0004.00,0006.26,0003.59
2022-05-21 11:18:00,,0829.5,5.00,0.00,22.5,21.4,00.0,31.5,24.4,19.4,0000.0,0003.94,0006.16,0003.54
2022-05-21 11:19:00,,0829.5,4.99,0.00,22.5,21.4,00.0,31.5,24.4,19.2,0000.0,0003.83,0005.80,0003.48
2022-05-21 11:20:00,,0829.5,5.00,0.00,22.5,21.4,00.0,31.5,24.3,19.2,0000.0,0003.71,0005.21,0003.42
2022-05-21 11:21:00,,0829.4,5.00,0.00,22.5,21.4,00.0,31.5,24.4,19.2,0000.0,0003.65,0005.10,0003.37
2022-05-21 11:22:00,,0829.4,4.99,0.00,22.5,21.4,00.0,31.5,24.4,19.2,0000.0,0003.59,0004.88,0003.32
2022-05-21 11:23:00,,0829.3,5.00,0.00,22.5,21.4,00.0,31.5,24.3,19.1,0000.0,0003.55,0005.30,0003.30
2022-05-21 11:24:00,,0829.3,4.99,0.00,22.5,21.4,00.0,31.5,24.3,19.1,0000.0,0003.51,0005.13,0003.29
2022-05-21 11:25:00,,0829.4,4.99,0.00,22.4,21.4,00.0,31.5,24.3,19.1,0000.0,0003.53,0005.23,0003.28
2022-05-21 11:26:00,,0829.5,5.00,0.00,22.5,21.4,00.0,31.5,24.3,19.1,0000.0,0003.51,0005.14,0003.28
2022-05-21 11:27:00,,0829.5,5.00,0.00,22.5,21.5,00.0,31.4,24.4,19.0,0000.0,0003.47,0004.99,0003.28
2022-05-21 11:28:00,,0829.5,5.01,0.00,22.6,21.7,00.0,31.4,24.6,18.9,0000.0,0003.44,0004.89,0003.26
2022-05-21 11:29:00,,0829.5,5.00,0.00,22.7,22.2,00.0,31.5,24.8,18.8,0000.0,0003.45,0005.01,0003.24
2022-05-21 11:30:00,,0829.5,4.99,0.00,22.7,22.3,00.0,31.5,24.9,18.7,0000.0,0003.44,0005.83,0003.23
2022-05-21 11:31:00,,0829.5,5.00,0.00,22.8,22.3,00.0,31.5,24.8,18.7,0000.0,0003.46,0006.28,0003.22
2022-05-21 11:32:00,,0829.5,4.99,0.00,22.8,22.3,00.0,31.6,24.8,18.6,0000.0,0003.43,0006.16,0003.20
2022-05-21 11:33:00,,0829.5,5.01,0.00,22.8,22.2,00.0,31.6,24.8,18.6,0000.0,0003.43,0006.16,0003.18
2022-05-21 11:34:00,,0829.5,5.00,0.00,22.8,22.2,00.0,31.6,24.7,18.5,0000.0,0003.40,0005.61,0003.15
2022-05-21 11:35:00,,0829.4,4.99,0.00,22.8,22.1,00.0,31.6,24.7,18.5,0000.0,0003.38,0005.54,0003.11
2022-05-21 11:36:00,,0829.5,5.00,0.00,22.8,22.0,00.0,31.6,24.7,18.5,0000.0,0003.33,0005.43,0003.06
2022-05-21 11:37:00,,0829.5,5.00,0.00,22.7,22.0,00.0,31.6,24.7,18.5,0000.0,0003.34,0005.60,0003.03
2022-05-21 11:38:00,,0829.5,5.00,0.00,22.7,21.9,00.0,31.6,24.6,18.5,0000.0,0003.34,0005.68,0002.99
2022-05-21 11:39:00,,0829.5,5.00,0.00,22.7,21.9,00.0,31.7,24.6,18.5,0000.0,0003.38,0005.88,0002.98
2022-05-21 11:40:00,,0829.5,5.01,0.00,22.7,21.9,00.0,31.7,24.6,18.5,0000.0,0003.39,0005.89,0002.97
2022-05-21 11:41:00,,0829.6,5.00,0.00,22.7,21.8,00.0,31.7,24.6,18.5,0000.0,0003.39,0005.05,0002.98
2022-05-21 11:42:00,,0829.5,5.00,0.00,22.7,21.8,00.0,31.7,24.6,18.5,0000.0,0003.45,0004.97,0003.01
2022-05-21 11:43:00,,0829.5,4.99,0.00,22.7,21.8,00.0,31.6,24.6,18.5,0000.0,0003.51,0005.23,0003.04
2022-05-21 11:44:00,,0829.6,5.00,0.00,22.7,21.7,00.0,31.6,24.6,18.5,0000.0,0003.54,0005.43,0003.03
2022-05-21 11:45:00,,0829.5,5.00,0.00,22.7,21.7,00.0,31.6,24.6,18.5,0000.0,0003.57,0005.90,0003.05
2022-05-21 11:46:00,,0829.6,5.00,0.00,22.7,21.7,00.0,31.6,24.6,18.5,0000.0,0003.63,0006.49,0003.07
2022-05-21 11:47:00,,0829.8,5.00,0.00,22.7,21.7,00.0,31.6,24.6,18.5,0000.0,0003.73,0007.18,0003.12
2022-05-21 11:48:00,,0829.6,4.99,0.00,22.7,21.7,00.0,31.6,24.6,18.6,0000.0,0003.80,0007.34,0003.17
2022-05-21 11:49:00,,0829.6,5.00,0.00,22.7,21.7,00.0,31.6,24.6,18.6,0000.0,0003.85,0007.40,0003.21
2022-05-21 11:50:00,,0829.6,5.01,0.00,22.7,21.7,00.0,31.6,24.6,18.6,0000.0,0003.86,0007.46,0003.25
2022-05-21 11:51:00,,0829.6,5.01,0.00,22.7,21.7,00.0,31.6,24.6,18.6,0000.0,0003.88,0007.63,0003.30
2022-05-21 11:52:00,,0829.6,4.99,0.00,22.7,21.7,00.0,31.6,24.6,18.6,0000.0,0004.01,0007.91,0003.34
2022-05-21 11:53:00,,0829.8,5.01,0.00,22.7,21.7,00.0,31.6,24.6,18.6,0000.0,0004.06,0008.16,0003.37
2022-05-21 11:54:00,,0829.8,5.00,0.00,22.7,21.7,00.0,31.6,24.6,18.7,0000.0,0004.05,0008.13,0003.37
2022-05-21 11:55:00,,0829.7,5.00,0.00,22.7,21.7,00.0,31.6,24.6,18.7,0000.0,0004.12,0008.56,0003.42
2022-05-21 11:56:00,,0829.8,5.00,0.00,22.7,21.7,00.0,31.6,24.6,18.7,0000.0,0004.15,0009.19,0003.46
2022-05-21 11:57:00,,0829.8,5.00,0.00,22.7,21.7,00.0,31.6,24.6,18.7,0000.0,0004.16,0009.00,0003.48
2022-05-21 11:58:00,,0829.8,4.99,0.00,22.7,21.7,00.0,31.6,24.6,18.7,0000.0,0004.16,0008.97,0003.49
2022-05-21 11:59:00,,0829.8,4.99,0.00,22.7,21.7,00.0,31.6,24.6,18.7,0000.0,0004.16,0009.01,0003.50
